Regional Weather Roundup
Issued by NWS

Home | Current Version | Previous Version | Text Only | Print | Product List | Glossary Off
Versions: 1 2 3 4 5 6 7 8 9 10 11 12 13 14 15 16 17 18 19 20 21 22 23 24 25 26 27 28 29 30 31 32 33 34 35 36 37 38 39 40 41 42 43 44 45 46 47 48 49 50

000
ASUS45 KBOI 281210
RWRID
WEATHER ROUNDUP FOR IDAHO
NATIONAL WEATHER SERVICE BOISE ID
500 AM MST SUN DEC 28 2014

NOTE: "FAIR" INDICATES FEW OR NO CLOUDS BELOW 12000 FEET
WITH NO SIGNIFICANT WEATHER AND/OR OBSTRUCTIONS TO VISIBILITY

IDZ012-014-281300-
SOUTHWEST IDAHO


CITY           SKY/WX    TMP DP  RH WIND       PRES   REMARKS
BOISE          MOCLDY    30  28  93 S5        30.05F WCI  25
CALDWELL       MOCLDY    30  23  74 CALM      30.09S
MOUNTAIN HOME  LGT SNOW  32  28  86 NW3       30.05R FOG
$$

IDZ016-017-281300-
SOUTHCENTRAL IDAHO


CITY           SKY/WX    TMP DP  RH WIND       PRES   REMARKS
BURLEY         SNOW      28  25  88 SW16      29.99S VSB 1/2 WCI  16
JEROME         LGT SNOW  28  26  92 SW8       30.00F FOG     WCI  20
TWIN FALLS     CLOUDY    34  26  72 W10       29.99F WCI  26
$$

IDZ019>023-281300-
SOUTHEAST IDAHO


CITY           SKY/WX    TMP DP  RH WIND       PRES   REMARKS
IDAHO FALLS    LGT SNOW  23  20  88 S12       29.98F FOG     WCI  12
POCATELLO      LGT SNOW  27  23  85 S16       29.97F FOG     WCI  15
REXBURG        LGT SNOW  21  19  92 S13G22    29.96F FOG     WCI   9
$$

IDZ006-010-011-018-031-032-281300-
CENTRAL IDAHO MOUNTAINS


CITY           SKY/WX    TMP DP  RH WIND       PRES   REMARKS
MCCALL         MOCLDY    17  16  95 NE5       29.94S WCI  10
HAILEY         FLURRIES  18  16  93 NW7       29.97F WCI   8
STANLEY          N/A     21  12  68 CALM      29.90F
SALMON         MOCLDY    16  12  86 S5        29.96R WCI   9
CHALLIS        CLOUDY    13  10  88 CALM      29.93S
$$

IDZ002-004-006-007-026-281300-
NORTHERN IDAHO


CITY           SKY/WX    TMP DP  RH WIND       PRES   REMARKS
LEWISTON       CLOUDY    37  33  85 SE7       29.99S WCI  32
LOWELL           N/A     32  31  96 CALM      30.03R
COEUR D`ALENE  CLOUDY    32  30  93 SW10      29.91S WCI  24
MULLAN PASS    CLOUDY    22  18  85 VRB5      29.76S WCI  16
$$



USA.gov is the U.S. government's official web portal to all federal, state and local government web resources and services.